Date,TemperatureHighF,TemperatureAvgF,TemperatureLowF,DewpointHighF,DewpointAvgF,DewpointLowF,HumidityHigh,HumidityAvg,HumidityLow,PressureMaxIn,PressureMinIn,WindSpeedMaxMPH,WindSpeedAvgMPH,GustSpeedMaxMPH,PrecipitationSumIn
2013-1-1,25.6,7.7,-5.9,3.1,-74.6,-99.9,89,73,58,30.32,30.11,5,2,0,0.00
2013-1-2,20.2,19.5,18.4,15.3,-16.2,-99.9,81,76,72,30.08,29.97,6,1,0,0.00
2013-1-3,25.1,22.2,19.9,19.5,0.3,-99.9,88,81,69,30.23,30.00,12,4,14,0.00
2013-1-4,31.5,24.8,16.4,17.6,4.4,-99.9,81,66,54,30.18,30.09,14,3,14,0.01
2013-1-5,35.5,31.3,18.6,30.4,2.1,-99.9,90,78,71,30.08,29.84,16,5,23,0.01
2013-1-6,25.6,24.3,23.3,18.4,-78.7,-99.9,80,74,72,30.17,29.85,15,10,17,0.00
2013-1-7,33.8,30.3,22.4,25.4,-35.8,-99.9,83,68,61,30.11,29.96,17,5,20,0.00
2013-1-8,39.3,27.9,11.7,30.5,-24.7,-99.9,93,82,70,30.06,29.84,17,4,20,0.01
2013-1-9,39.3,32.4,20.0,29.7,-5.0,-99.9,89,71,52,30.43,29.90,22,6,27,0.01
2013-1-10,34.9,22.1,16.1,33.9,-25.8,-99.9,96,92,88,30.46,29.72,9,2,9,0.11
2013-1-11,46.5,38.8,33.8,45.5,-10.0,-99.9,100,98,86,29.76,29.47,18,4,21,0.11
2013-1-12,49.1,30.7,19.9,42.7,-26.3,-99.9,87,72,61,30.03,29.48,23,8,30,0.01
2013-1-13,19.9,13.4,9.2,10.5,-35.5,-99.9,72,67,61,30.26,29.91,14,6,17,0.00
2013-1-14,24.7,13.9,6.1,10.5,-1.8,-99.9,87,71,52,30.47,30.25,11,2,16,0.00
2013-1-15,30.6,19.2,8.1,15.7,10.2,5.0,88,70,46,30.41,30.02,16,3,18,0.00
2013-1-16,37.0,28.0,20.0,30.3,19.6,9.0,82,71,59,30.08,29.75,18,6,22,0.00
2013-1-17,26.4,20.9,15.1,15.5,6.7,-2.5,79,54,40,30.39,30.09,18,5,20,0.00
2013-1-18,47.3,33.4,14.9,32.8,23.9,9.8,85,69,52,30.38,29.78,25,6,31,0.00
2013-1-19,47.9,40.0,33.8,33.2,31.0,27.4,87,71,53,29.79,29.62,24,4,26,0.00
2013-2-15,22.5,16.6,10.9,7.6,4.0,0.1,64,57,47,30.25,30.17,16,6,19,0.00
2013-2-16,17.7,10.8,3.4,4.8,1.5,-1.4,80,66,49,30.24,30.16,13,4,15,0.00
2013-2-17,27.8,14.8,-1.6,20.3,7.4,-5.4,84,72,57,30.20,29.83,20,5,24,0.00
2013-2-18,43.2,31.4,16.9,32.5,24.4,10.7,92,75,65,29.84,29.47,23,7,31,0.00
2013-2-19,16.5,10.0,4.8,10.9,1.5,-4.5,82,68,57,30.26,29.62,24,10,28,0.00
2013-2-20,22.7,12.4,3.2,9.1,2.3,-5.6,78,63,50,30.40,30.27,17,5,20,0.00
2013-2-21,25.0,17.3,9.9,22.5,12.0,4.1,93,80,65,30.43,29.99,16,2,19,0.00
2013-2-22,30.6,25.9,22.9,26.7,22.4,19.4,94,87,76,29.99,29.78,12,2,14,0.12
2013-2-23,28.8,25.1,21.6,20.0,17.8,16.3,84,74,61,29.94,29.83,15,5,16,0.01
2013-2-24,35.9,22.5,7.9,21.3,14.9,4.9,91,74,51,30.12,29.94,10,1,0,0.03
2013-2-25,41.2,28.6,18.8,27.3,21.8,15.2,89,76,54,30.13,30.00,3,0,0,0.00
2013-2-26,35.8,31.1,27.6,26.7,24.6,21.8,89,77,65,29.99,29.68,20,4,24,0.00
2013-2-27,32.7,30.7,28.2,30.6,27.7,24.4,96,88,80,29.83,29.66,18,10,21,0.02
2013-2-28,31.9,30.8,28.1,27.6,24.0,18.3,84,76,64,30.11,29.83,19,9,23,0.00
2013-3-1,28.5,23.7,11.7,19.7,15.0,7.2,83,69,58,30.26,30.11,13,2,15,0.00
2013-3-2,28.8,16.5,4.1,13.0,6.5,1.1,88,67,37,30.30,30.17,15,1,15,0.00
2013-3-3,32.2,18.2,3.2,11.1,5.9,-0.2,88,62,32,30.18,30.06,4,0,0,0.00
2013-3-4,29.1,24.1,18.6,22.7,-6.9,-99.9,85,72,58,30.08,29.96,16,5,18,0.00
2013-3-5,28.8,27.1,25.8,26.0,5.9,-99.9,92,88,77,30.01,29.87,12,1,0,0.05
2013-3-6,29.7,24.3,10.4,21.4,-4.3,-99.9,90,76,66,30.35,30.28,17,4,18,0.01
2013-3-7,36.9,19.3,2.2,20.3,9.8,-99.9,91,76,48,30.44,30.34,8,0,0,0.08
2013-3-8,37.0,24.3,9.9,26.2,-1.6,-99.9,92,79,63,30.43,30.21,15,4,0,0.00
2013-3-9,38.3,34.6,30.7,35.0,-59.9,-99.9,96,84,76,30.22,29.73,22,10,27,0.16
2013-3-10,36.0,36.0,36.0,-99.9,-99.9,-99.9,96,96,96,29.74,29.59,13,13,0,0.00
2013-3-11,36.0,36.0,36.0,-99.9,-99.9,-99.9,96,96,96,29.72,29.53,13,13,0,0.00
2013-3-12,36.0,33.4,27.2,24.1,-74.1,-99.9,96,90,74,30.04,29.73,13,11,15,0.00
2013-3-13,32.9,29.3,20.3,16.9,-62.7,-99.9,81,60,31,30.32,30.05,23,8,23,0.01
2013-3-14,33.2,26.2,21.0,28.3,-69.7,-99.9,92,79,69,30.31,30.00,11,0,0,0.01
2013-3-15,35.9,30.5,27.0,34.3,-57.0,-99.9,96,93,92,30.03,29.71,9,1,0,0.23
2013-3-16,33.2,28.0,22.9,25.9,-52.0,-99.9,95,84,70,30.08,29.74,17,2,17,0.00
2013-3-17,29.7,24.0,15.7,20.1,-48.0,-99.9,74,64,60,30.25,29.90,16,6,15,0.00
2013-3-18,31.5,26.3,15.9,29.6,-63.2,-99.9,97,83,64,29.96,29.54,22,2,25,0.10
2013-3-19,23.5,17.8,10.0,6.6,-71.5,-99.9,79,59,45,30.10,29.69,30,14,30,0.00
2013-3-20,18.3,14.7,7.6,9.1,-66.1,-99.9,72,56,50,30.16,29.97,24,10,27,0.00
2013-3-21,29.4,13.9,1.3,11.8,-35.2,-99.9,84,66,41,30.12,29.98,10,1,0,0.00
2013-3-22,37.3,22.1,5.8,21.5,1.8,-99.9,88,66,38,30.08,29.99,2,0,0,0.00
2013-3-23,39.1,29.2,16.4,22.5,10.2,-99.9,88,65,41,30.13,30.02,4,0,0,0.00
2013-3-24,32.1,30.2,28.8,26.4,-38.3,-99.9,84,77,63,30.05,29.80,15,3,15,0.00
2013-3-25,34.0,30.7,23.9,24.1,-78.1,-99.9,83,75,64,30.09,29.79,18,9,20,0.00
2013-3-26,38.9,34.1,28.5,26.1,-66.0,-99.9,70,61,50,30.25,30.07,15,6,15,0.00
2013-3-27,41.8,34.7,32.4,24.7,-89.9,-99.9,72,60,38,30.30,30.21,7,0,0,0.00
2013-3-28,44.8,36.4,23.0,26.7,-69.8,-99.9,89,59,36,30.35,30.21,4,0,0,0.00
2013-3-29,42.3,36.3,24.2,29.7,-60.1,-99.9,93,66,48,30.32,30.15,2,0,0,0.00
2013-3-30,50.2,41.8,34.4,43.8,2.8,-99.9,96,76,60,30.18,29.78,24,2,25,0.38
2013-3-31,41.3,36.5,32.1,38.1,-70.7,-99.9,97,86,45,29.93,29.71,17,2,17,0.00
2013-4-1,34.3,32.0,26.7,17.7,-92.3,-99.9,58,49,42,30.18,29.89,17,8,17,0.00
2013-4-2,34.3,24.7,23.5,20.1,-80.3,-99.9,85,79,42,30.28,30.15,10,1,0,0.00
2013-4-3,43.8,32.8,23.9,19.2,-98.7,-99.9,85,62,37,30.39,30.19,17,1,17,0.00
2013-4-4,40.1,39.7,38.2,30.7,-93.3,-99.9,72,39,37,30.19,29.91,6,1,0,0.00
2013-4-5,48.3,41.8,36.5,30.0,-14.3,-99.9,73,59,31,30.09,30.00,22,4,22,0.00
2013-4-6,60.2,46.7,35.8,50.0,9.4,-99.9,93,63,46,30.04,29.47,25,9,26,0.10
2013-4-7,54.2,43.3,36.9,40.3,8.5,-99.9,84,72,50,29.93,29.60,20,4,21,0.00
2013-4-8,66.4,48.9,40.3,48.6,12.8,-99.9,92,75,49,29.95,29.63,16,2,16,0.04
2013-4-9,42.9,39.6,35.6,40.2,37.6,32.6,97,93,84,30.05,29.84,25,1,28,1.26
2013-4-10,35.8,34.2,32.4,34.0,32.0,29.9,95,92,87,30.07,29.88,22,2,23,0.76
2013-4-11,39.5,36.7,34.6,38.3,34.8,31.8,96,93,86,29.88,29.56,22,6,23,0.17
2013-4-12,38.2,34.8,33.4,34.7,31.0,26.2,99,87,70,29.79,29.51,15,4,16,0.02
2013-4-13,37.3,33.8,30.6,29.5,26.1,23.7,87,74,59,29.98,29.77,19,5,21,0.00
2013-4-14,50.8,38.4,30.7,41.9,34.2,26.9,95,85,69,29.98,29.54,25,6,28,0.29
2013-4-15,52.5,44.6,35.5,47.6,35.4,28.6,100,73,46,29.96,29.57,28,5,28,0.12
2013-4-16,52.9,41.9,32.1,34.6,29.4,26.9,82,63,39,30.27,29.96,15,4,16,0.00
2013-4-17,41.9,39.8,37.8,40.0,34.9,29.2,97,83,62,30.27,29.80,23,3,27,0.82
2013-4-18,51.1,43.2,35.8,51.0,41.8,31.2,100,95,83,29.80,29.26,27,4,28,0.34
2013-4-19,37.2,34.4,31.2,32.1,26.5,21.5,92,73,57,29.93,29.35,33,11,33,0.01
2013-4-20,46.2,35.2,24.1,25.6,18.7,9.5,89,55,23,30.34,29.93,17,2,17,0.00
2013-4-21,53.2,42.1,29.8,39.1,31.3,22.0,89,66,48,30.42,30.15,32,10,32,0.00
2013-4-22,64.8,53.5,43.3,45.3,39.8,36.0,95,62,36,30.18,29.92,28,6,29,0.03
2013-4-23,54.8,41.3,35.6,47.7,34.2,25.5,92,76,62,30.01,29.85,20,8,21,0.00
2013-4-24,52.2,41.8,31.3,36.6,25.3,18.8,85,54,31,30.04,29.94,22,4,24,0.02
2013-4-25,50.2,41.7,35.8,36.7,30.2,21.4,87,66,33,30.24,29.95,17,4,20,0.00
2013-4-26,69.6,54.5,33.7,46.1,37.4,25.8,81,54,36,30.23,30.06,29,7,31,0.00
2013-4-27,65.3,55.8,44.8,49.2,45.5,42.6,96,70,50,30.16,29.96,22,3,22,0.00
2013-4-28,72.8,56.6,37.3,49.2,42.6,36.5,100,65,31,29.96,29.72,15,1,18,0.00
2013-4-29,70.4,60.2,49.4,58.0,51.5,43.6,88,74,54,29.77,29.60,19,4,20,0.04
2013-4-30,85.5,72.7,61.0,60.5,55.3,44.7,92,59,28,29.83,29.57,30,6,30,0.38
2013-5-1,73.5,59.6,44.5,52.9,46.3,36.1,81,63,44,30.23,29.83,24,7,26,0.00
2013-5-2,44.5,39.5,34.6,37.4,34.7,30.3,94,83,73,30.33,30.21,23,10,23,0.00
2013-5-3,44.1,37.6,33.2,43.8,35.9,30.3,99,94,85,30.26,29.98,18,4,18,0.81
2013-5-4,67.3,55.4,44.1,58.2,50.0,43.8,99,83,59,30.02,29.95,7,0,0,0.08
2013-5-5,73.9,59.9,44.3,52.6,47.9,38.7,100,69,32,30.03,29.94,11,0,0,0.00
2013-5-6,75.3,60.8,44.2,52.5,45.6,37.6,99,64,27,30.04,29.94,12,0,13,0.00
2013-5-7,78.8,62.9,44.8,52.4,43.8,30.0,98,57,18,30.01,29.91,10,0,0,0.00
2013-5-8,78.8,64.3,45.2,53.8,46.5,38.7,96,59,25,29.98,29.89,13,1,14,0.00
2013-5-9,65.6,58.7,50.4,59.3,55.6,48.3,96,90,60,29.91,29.81,13,1,15,0.46
2013-5-10,58.7,49.1,43.9,49.8,45.1,41.2,96,87,69,29.98,29.87,15,3,17,0.07
2013-5-11,52.2,47.3,41.8,48.7,34.5,18.9,100,65,29,30.05,29.77,33,10,35,0.04
2013-5-12,53.8,44.8,35.8,29.7,25.0,18.4,74,48,27,30.12,30.04,22,7,24,0.00
2013-5-13,65.5,49.8,29.3,39.5,31.0,22.3,93,55,21,30.14,29.79,17,3,20,0.00
2013-5-14,88.8,71.6,53.3,63.3,50.1,38.7,79,50,22,29.79,29.47,48,4,49,0.18
2013-5-15,78.3,68.6,54.4,56.2,43.9,34.9,80,43,24,29.82,29.50,18,3,20,0.00
2013-5-16,83.6,66.4,46.5,56.5,47.4,39.7,98,58,23,29.88,29.79,13,1,14,0.00
2013-5-17,65.0,57.0,47.7,57.4,48.8,33.7,95,76,39,30.03,29.88,15,2,15,1.17
2013-5-18,79.4,64.8,50.5,65.4,56.5,47.7,92,76,52,30.00,29.82,15,2,18,0.00
2013-5-19,83.4,71.6,61.5,67.1,62.3,54.8,93,75,45,29.84,29.54,39,5,39,0.07
2013-5-20,76.5,66.8,60.9,62.6,60.9,57.2,98,83,55,29.70,29.55,24,5,28,0.34
2013-5-24,65.2,57.6,51.7,47.4,43.9,36.1,82,63,35,30.28,30.23,12,1,15,0.00
2013-5-25,58.0,52.6,46.8,47.4,43.6,39.1,89,72,54,30.33,30.24,13,2,12,0.04
2013-5-26,61.2,51.7,42.9,52.8,46.2,38.8,96,83,48,30.26,30.07,17,1,18,0.09
2013-5-27,56.3,54.0,52.0,55.1,50.8,43.8,100,89,68,30.08,29.81,14,3,14,0.05
2013-5-28,70.6,59.6,52.2,66.4,58.0,51.9,100,95,83,29.83,29.64,11,0,0,0.21
2013-5-29,81.8,68.3,60.2,68.7,63.2,59.6,100,86,60,29.83,29.70,29,4,29,0.99
2013-5-30,79.8,69.2,61.3,72.0,65.4,58.5,100,88,63,29.79,29.58,35,7,35,0.90
2013-5-31,77.7,68.7,62.9,65.0,61.2,56.6,92,78,50,29.68,29.58,33,6,33,0.00
2013-6-1,74.2,65.9,55.7,64.7,58.0,52.3,98,77,48,29.69,29.56,21,2,21,0.01
2013-6-2,63.1,54.4,46.1,57.4,44.6,39.2,93,71,48,30.00,29.68,21,5,24,0.00
2013-6-3,70.8,56.1,40.6,52.2,43.5,34.1,100,69,30,30.07,29.96,10,0,0,0.00
2013-6-4,64.8,57.8,52.6,55.9,51.6,45.3,97,81,53,30.12,30.01,15,2,15,0.31
2013-6-5,60.9,55.8,51.3,59.5,54.1,49.1,97,94,88,30.07,29.89,9,1,0,0.31
2013-6-6,58.1,56.3,53.9,57.0,54.4,52.8,99,93,87,29.93,29.86,11,1,0,0.18
2013-6-7,69.9,60.6,52.0,56.9,52.2,49.1,95,76,51,29.96,29.86,9,0,0,0.01
2013-6-8,70.8,61.5,54.7,56.4,53.0,46.2,99,76,47,29.92,29.86,14,2,15,0.00
2013-6-9,75.8,64.8,58.6,65.3,57.1,48.0,99,77,56,29.92,29.73,26,6,28,0.55
2013-6-10,78.3,67.2,57.6,64.9,61.1,57.6,100,83,53,29.81,29.72,11,0,0,0.00
2013-6-11,81.1,69.3,56.2,69.1,62.9,56.2,100,82,56,29.86,29.73,17,1,17,0.01
2013-6-12,79.2,70.0,62.4,70.4,66.3,60.8,97,89,73,29.84,29.59,15,2,15,0.94
2013-6-13,77.2,68.0,58.9,63.2,58.6,53.7,96,74,45,30.00,29.70,15,2,16,0.00
2013-6-14,76.3,66.2,54.2,61.7,57.3,52.8,98,76,48,30.10,29.90,13,2,15,0.00
2013-6-15,80.3,70.0,60.4,71.0,64.0,58.1,96,82,63,29.96,29.75,13,1,13,0.18
2013-6-16,83.0,72.9,61.5,69.8,58.7,45.1,100,67,30,29.85,29.79,12,0,12,0.00
2013-6-17,83.8,70.8,56.6,63.6,58.5,51.2,99,69,35,29.89,29.81,9,0,13,0.00
2013-6-18,74.6,65.4,57.3,58.9,54.2,50.0,89,69,46,30.03,29.89,9,0,0,0.00
2013-6-19,78.5,65.0,49.4,59.6,53.7,48.6,99,71,40,30.10,29.98,10,0,0,0.00
2013-6-20,85.3,72.4,55.9,64.7,59.0,54.3,97,67,37,30.06,29.93,20,3,22,0.00
2013-6-21,76.0,71.6,64.0,69.4,64.9,59.8,100,80,62,30.01,29.72,40,3,51,0.65
2013-6-22,83.6,71.3,64.8,74.6,67.1,63.4,99,88,65,30.01,29.81,24,4,24,2.97
2013-6-23,84.0,73.6,63.2,74.1,66.8,62.6,100,81,53,30.02,29.76,18,2,19,0.16
2013-6-24,76.8,71.3,67.4,69.1,66.7,64.2,99,86,71,29.92,29.77,19,2,24,0.05
2013-6-25,81.6,72.3,65.0,75.0,69.6,64.9,100,92,77,29.85,29.68,14,2,14,0.60
2013-6-26,82.4,74.8,69.9,73.8,70.5,66.3,100,87,65,29.70,29.62,13,2,13,0.22
2013-6-27,86.1,76.7,67.3,72.7,65.4,55.8,100,72,40,29.74,29.66,24,3,26,0.00
2013-6-28,75.3,68.4,61.8,66.7,61.1,56.3,96,78,56,29.70,29.60,21,3,21,0.04
2013-6-29,71.8,65.8,61.6,63.6,61.7,57.0,97,87,65,29.81,29.60,22,2,22,0.07
2013-6-30,77.6,66.7,56.6,61.0,54.8,46.8,93,68,36,30.02,29.81,15,2,15,0.01
2013-7-1,80.3,66.2,52.2,60.1,54.3,49.9,100,71,38,30.09,30.02,13,1,13,0.00
2013-7-2,77.4,65.2,54.4,61.9,56.0,48.0,100,75,45,30.08,30.00,4,0,0,0.00
2013-7-3,73.9,61.4,48.8,63.1,55.9,48.3,100,84,59,30.06,29.96,6,0,0,0.00
2013-7-4,81.4,68.5,55.1,65.6,59.5,55.1,100,77,43,30.02,29.92,14,1,14,0.01
2013-7-5,83.0,71.6,57.2,67.2,62.0,56.9,100,75,47,29.98,29.89,17,2,17,0.00
2013-7-6,84.9,74.9,61.3,67.8,63.9,59.0,96,70,46,29.94,29.86,14,1,16,0.00
2013-7-7,86.1,76.3,65.3,72.7,68.6,63.8,97,78,60,29.89,29.80,12,1,15,0.00
2013-7-8,88.4,79.1,70.4,76.4,72.2,68.5,98,81,60,29.90,29.80,18,2,18,0.15
2013-7-9,84.3,76.5,69.9,75.1,72.1,67.6,100,87,66,29.90,29.74,19,2,25,0.34
2013-7-10,77.4,72.2,60.5,69.0,61.4,54.8,93,71,46,29.99,29.78,17,3,17,0.00
2013-7-11,82.4,68.3,54.7,65.2,59.6,54.4,100,77,41,30.07,29.98,8,0,0,0.00
2013-7-12,80.7,69.2,56.0,66.6,59.8,55.7,100,76,44,30.10,30.00,13,0,14,0.00
2013-7-13,80.3,69.1,59.3,67.0,62.1,57.8,97,80,56,30.10,30.00,11,0,0,0.00
2013-7-14,85.3,72.5,57.8,70.5,64.5,57.5,100,79,48,30.16,30.09,14,0,14,0.00
2013-7-15,88.2,76.9,64.5,75.9,70.4,64.2,100,82,56,30.21,30.12,5,0,0,0.00
2013-7-16,89.5,79.8,69.8,77.4,73.1,69.6,100,82,56,30.21,30.15,11,1,0,0.00
2013-7-17,92.3,80.8,70.1,77.8,73.2,68.0,100,80,46,30.23,30.10,12,1,13,0.00
2013-7-18,90.5,81.2,70.4,76.9,72.0,69.4,100,76,52,30.10,29.81,17,1,19,0.00
2013-7-19,90.3,80.7,69.9,73.6,68.0,57.9,87,66,42,29.81,29.69,21,3,22,0.03
2013-7-20,83.0,71.8,59.5,68.6,63.6,58.6,100,78,53,29.89,29.80,12,0,12,0.00
2013-7-21,82.0,66.7,60.1,70.8,62.9,58.4,97,88,65,29.92,29.83,23,0,23,0.58
2013-7-22,84.5,70.6,59.8,74.0,66.4,59.8,100,88,66,29.84,29.61,20,1,20,0.20
2013-7-23,73.7,67.1,55.6,66.8,57.7,53.3,99,73,52,29.96,29.69,15,2,16,0.00
2013-7-24,73.9,61.5,50.4,61.1,54.5,48.0,100,81,48,30.05,29.96,5,0,0,0.00
2013-7-25,78.5,64.2,53.9,69.8,60.7,53.6,100,89,63,30.01,29.92,21,0,21,0.39
2013-7-26,76.7,66.6,59.2,68.6,60.0,51.1,100,81,43,29.92,29.80,20,2,22,0.14
2013-7-27,61.0,55.3,50.1,52.5,48.1,42.9,91,77,61,29.95,29.85,17,3,18,0.00
2013-7-28,66.6,58.1,50.2,54.8,50.7,46.3,95,77,60,30.00,29.83,16,2,16,0.00
2013-7-29,75.1,59.1,49.5,59.7,53.6,49.0,100,84,56,30.10,30.00,4,0,0,0.00
2013-8-7,75.8,67.3,59.3,61.6,59.3,57.6,94,77,59,29.94,29.85,7,1,0,0.00
2013-8-8,80.5,66.6,54.4,65.8,59.8,53.6,99,81,48,29.99,29.92,4,0,0,0.00
2013-8-9,79.2,67.9,58.3,64.1,59.1,52.0,100,77,42,30.03,29.92,12,1,13,0.00
2013-8-10,76.8,63.7,50.5,59.4,54.9,50.2,100,76,45,30.12,30.03,10,0,0,0.00
2013-8-11,73.9,64.2,54.2,66.8,61.7,53.6,100,92,74,30.09,29.97,9,0,0,0.21
2013-8-12,79.0,69.7,62.4,69.0,62.9,56.2,100,81,48,29.98,29.86,13,1,14,0.13
2013-8-13,71.6,62.7,53.2,57.1,51.9,46.8,95,70,45,30.12,29.95,11,1,0,0.00
2013-8-14,75.3,60.2,47.0,60.0,52.6,46.7,100,79,40,30.18,30.07,7,0,0,0.00
2013-8-15,78.3,63.5,51.1,62.5,54.9,49.3,100,78,39,30.12,30.04,0,0,0,0.00
2013-8-16,83.0,65.2,50.1,63.2,55.6,50.1,100,76,36,30.15,30.08,0,0,0,0.00
2013-8-17,82.2,65.4,50.7,63.4,56.7,50.7,100,78,39,30.20,30.10,6,0,0,0.08
2013-8-18,80.9,65.4,51.4,62.9,57.3,51.4,100,79,43,30.17,30.03,11,0,12,0.00
2013-8-19,80.3,66.9,53.1,67.1,60.7,53.1,100,83,52,30.04,29.95,15,1,16,0.00
2013-8-20,81.1,65.8,57.8,70.6,62.4,57.8,100,91,60,30.00,29.95,19,1,19,0.01
2013-8-22,79.0,70.6,64.2,70.3,66.4,63.6,100,88,62,30.07,29.95,20,1,24,1.38
2013-8-23,80.3,70.0,62.4,67.5,63.0,55.7,100,81,48,30.13,30.05,11,0,14,0.01
2013-8-24,81.4,69.9,56.9,71.2,64.2,55.9,100,83,67,30.18,30.06,15,1,16,0.00
2013-8-25,87.2,78.8,70.8,75.1,69.7,67.2,89,75,60,30.11,29.99,19,2,22,0.00
2013-8-26,89.7,82.7,73.9,77.5,74.8,72.6,97,78,63,29.92,29.86,12,1,12,0.00
2013-8-27,91.2,80.2,69.3,77.1,72.8,68.4,98,80,58,29.88,29.72,16,1,18,0.00
2013-8-28,81.6,75.1,68.1,74.2,71.7,67.5,100,90,70,29.98,29.77,5,0,0,0.00
2013-8-29,86.3,74.2,64.0,74.9,69.5,64.0,100,87,63,30.02,29.87,10,0,0,0.01
2013-8-30,89.3,78.3,68.9,78.2,71.9,66.6,99,82,61,29.87,29.70,12,1,12,0.00
2013-8-31,84.7,72.9,65.3,72.7,66.4,62.7,99,81,56,29.82,29.70,5,0,0,0.00
2013-9-1,82.6,71.4,63.5,72.5,64.7,57.8,100,82,48,29.81,29.67,18,2,18,0.00
2013-9-2,66.9,60.5,52.0,59.9,57.0,50.1,96,88,75,29.99,29.80,10,0,0,0.00
2013-9-3,75.6,59.1,44.3,59.8,52.3,44.3,100,82,46,30.07,29.98,11,1,13,0.01
2013-9-4,84.5,65.9,47.6,70.2,59.3,47.6,100,82,52,30.08,29.99,11,1,13,0.01
2013-9-5,77.0,68.7,62.4,66.0,62.5,56.1,99,82,61,30.19,30.05,11,0,0,0.00
2013-9-6,85.9,69.3,53.9,67.0,59.5,51.0,95,73,47,30.15,29.89,14,1,14,0.00
2013-9-7,88.6,74.9,63.5,75.7,67.7,61.8,98,80,58,29.89,29.79,10,0,0,0.00
2013-9-8,73.5,68.6,64.7,69.4,63.5,58.5,88,84,79,30.01,29.88,9,0,0,0.00
2013-9-9,91.6,76.8,65.2,76.8,68.8,63.4,96,78,56,29.89,29.67,14,1,14,0.00
2013-9-10,92.5,81.6,73.3,69.8,65.4,60.3,79,59,41,29.90,29.73,15,2,16,0.00
2013-9-11,80.9,71.7,64.7,69.4,66.6,61.8,99,85,59,30.02,29.89,27,0,27,0.49
2013-9-12,72.0,64.1,55.9,62.1,53.4,46.3,100,70,47,30.12,29.94,19,3,20,0.00
2013-9-13,68.3,54.6,44.1,47.8,43.9,34.5,96,71,31,30.22,30.11,10,0,0,0.00
2013-9-14,70.4,54.9,38.6,54.5,46.4,38.3,100,77,43,30.15,29.92,15,1,17,0.00
2013-9-15,63.7,56.9,54.4,57.4,54.6,50.6,99,92,74,30.20,29.90,11,1,0,0.56
2013-9-16,65.2,54.6,44.8,54.4,46.0,40.8,97,75,44,30.38,30.20,9,0,0,0.00
2013-9-17,65.8,54.2,40.3,58.4,50.1,39.8,100,87,63,30.31,30.00,14,1,14,0.02
2013-9-18,77.4,68.8,61.5,69.3,62.4,55.8,92,80,65,30.00,29.77,15,2,16,0.00
2013-9-19,84.5,71.4,65.6,73.9,68.4,63.4,100,91,64,29.78,29.63,43,2,47,0.71
2013-9-20,67.9,62.9,56.5,67.9,58.4,50.8,100,86,66,29.82,29.67,14,1,15,0.05
2013-9-21,61.2,53.9,45.1,51.7,47.9,44.6,98,81,59,29.93,29.82,12,1,13,0.00
2013-9-22,65.5,52.1,39.9,52.0,46.8,39.9,100,84,55,30.05,29.93,0,0,0,0.01
2013-9-23,68.4,55.8,42.8,54.9,48.9,42.0,99,79,54,30.07,29.95,3,0,0,0.00
2013-9-24,71.6,57.1,43.8,56.3,50.2,43.5,100,80,50,29.99,29.89,9,0,0,0.00
2013-9-25,70.8,55.3,42.2,59.5,50.7,42.1,100,87,54,29.98,29.88,1,0,0,0.00
2013-9-26,75.6,58.5,42.9,60.5,52.3,42.9,100,82,51,30.02,29.93,14,0,15,0.01
2013-9-27,79.2,65.2,51.7,60.4,52.8,48.4,92,67,36,30.06,29.93,20,2,21,0.00
2013-9-28,75.8,62.4,49.9,65.9,55.8,49.3,99,80,62,29.94,29.74,29,4,33,0.25
2013-9-29,68.6,53.9,42.2,59.6,47.9,42.1,100,84,43,30.04,29.93,16,1,16,0.02
2013-9-30,70.9,56.5,40.8,52.8,47.5,40.5,100,75,44,29.94,29.74,27,3,27,0.00
2013-10-1,78.1,65.4,52.5,61.1,56.8,50.6,97,76,47,29.93,29.75,13,2,19,0.00
2013-10-2,74.9,58.2,42.5,56.0,48.4,40.0,100,75,30,30.08,29.88,13,0,13,0.00
2013-10-3,72.3,64.0,55.6,68.9,60.8,49.4,100,90,66,29.88,29.75,19,0,20,0.93
2013-10-4,66.4,64.4,61.6,66.3,63.9,61.6,100,98,94,29.92,29.79,9,0,0,0.18
2013-10-5,72.8,64.0,52.3,69.8,61.0,43.5,100,91,63,29.86,29.67,13,1,15,0.03
2013-10-6,53.1,47.2,39.2,49.1,42.1,38.9,100,84,61,29.75,29.65,10,0,0,0.02
2013-10-7,66.1,53.0,42.8,51.1,44.9,39.9,97,77,40,30.04,29.71,13,1,13,0.01
2013-10-8,73.2,55.9,38.5,55.7,45.1,38.5,100,72,36,30.10,29.99,21,1,23,0.00
2013-10-9,70.9,57.9,45.5,53.9,48.0,44.1,98,72,40,30.13,30.03,17,1,17,0.00
2013-10-10,72.0,54.1,39.2,55.1,47.3,39.2,100,81,42,30.12,29.97,14,0,16,0.00
2013-10-11,73.9,60.2,44.2,59.9,52.3,44.2,100,78,51,29.98,29.79,27,4,33,0.01
2013-10-12,68.6,59.6,42.2,57.9,47.5,37.0,91,66,41,30.15,29.78,20,2,20,0.00
2013-10-13,61.3,46.6,35.0,44.6,36.9,30.3,100,73,31,30.39,30.15,13,1,14,0.00
2013-10-14,62.0,46.7,30.6,46.4,39.4,30.1,100,78,51,30.40,30.04,14,1,17,0.00
2013-10-15,58.9,52.8,48.2,57.5,48.0,42.8,99,84,66,30.04,29.69,20,3,21,0.33
2013-10-16,50.2,48.7,47.0,49.1,46.0,43.1,99,90,83,29.91,29.73,13,1,13,0.00
2013-10-17,56.3,46.2,38.3,44.2,39.9,35.1,96,80,47,29.89,29.76,15,1,15,0.00
2013-10-18,48.5,43.7,37.0,42.6,37.9,31.9,97,81,55,29.91,29.76,18,2,18,0.00
2013-10-19,50.1,39.6,29.0,41.0,35.5,28.8,100,86,54,29.89,29.69,20,2,21,0.04
2013-10-20,49.5,40.3,28.4,46.3,37.2,27.9,100,89,70,29.82,29.65,16,2,18,0.01
2013-10-21,46.0,37.4,27.9,38.9,26.8,20.3,82,66,46,29.95,29.74,21,4,21,0.00
2013-10-22,47.7,34.8,23.8,34.7,28.1,20.9,94,77,53,29.97,29.88,20,2,20,0.00
2013-10-23,41.7,35.3,27.2,34.4,27.3,-99.9,94,78,51,30.02,29.93,19,5,20,0.00
2013-10-24,44.1,36.9,30.4,29.0,27.0,24.9,83,68,52,30.30,30.02,21,8,22,0.00
2013-10-25,52.7,40.4,25.3,34.8,29.2,22.0,93,67,42,30.33,29.84,31,7,31,0.00
2013-10-26,51.4,45.4,35.1,37.5,29.7,-99.9,84,63,49,30.06,29.74,30,9,30,0.00
2013-10-27,57.0,40.0,26.3,35.6,30.5,24.6,95,72,39,30.03,29.84,25,3,25,0.00
2013-10-28,42.6,39.8,34.1,33.1,30.1,28.9,88,68,61,30.38,30.01,13,1,13,0.00
2013-10-29,52.8,44.1,36.9,40.9,34.9,27.4,78,70,58,30.37,30.07,16,1,16,0.00
2013-10-30,54.4,49.4,45.4,54.4,47.5,40.3,100,93,77,30.07,29.66,15,1,17,0.00
2013-10-31,56.9,50.8,42.6,56.9,49.5,38.4,100,95,84,29.66,29.29,18,2,18,0.46
2013-11-1,48.3,42.8,35.3,42.1,38.3,33.7,96,84,67,29.74,29.33,17,2,17,0.01
2013-11-2,46.4,38.9,28.2,36.2,32.6,26.7,96,79,61,30.14,29.74,14,2,14,0.00
2013-11-3,50.7,38.3,24.2,37.9,30.9,23.5,99,77,50,30.26,30.09,22,3,28,0.00
2013-11-4,51.6,47.7,43.1,44.8,39.1,33.5,83,72,63,30.11,29.95,26,5,29,0.00
2013-11-5,54.4,46.8,34.1,53.1,45.6,33.3,100,96,83,30.22,29.74,23,2,23,0.80
2013-11-6,55.0,41.4,31.8,54.2,33.8,19.9,97,76,43,30.17,29.67,22,5,24,0.17
2013-11-7,40.8,32.7,25.4,30.7,26.9,22.7,94,79,61,30.24,30.16,14,1,15,0.00
2013-11-8,47.6,35.7,22.5,34.7,28.1,21.5,98,76,48,30.26,29.71,28,4,28,0.00
2013-11-9,50.2,45.5,37.0,40.2,34.1,23.4,77,65,48,30.12,29.68,31,7,32,0.00
2013-11-10,47.0,41.1,35.3,31.3,28.7,25.8,70,61,48,30.31,30.09,21,3,21,0.00
2013-11-11,43.8,31.3,21.0,34.1,23.5,11.4,98,73,60,30.61,30.02,22,6,24,0.04
2013-11-12,28.4,21.3,15.9,15.7,11.5,8.2,74,66,49,30.76,30.56,13,3,13,0.00
2013-11-13,43.5,30.8,16.7,23.2,15.2,11.2,82,55,36,30.56,30.01,24,5,25,0.00
2013-11-14,47.0,39.8,31.9,30.2,25.0,16.7,71,55,45,30.01,29.83,16,2,17,0.00
2013-11-15,55.3,41.1,26.3,39.2,32.4,24.1,94,72,51,29.89,29.79,17,1,17,0.00
2013-11-16,60.1,49.0,37.2,55.9,46.3,32.9,98,90,77,29.80,29.33,34,7,34,0.14
2013-11-17,58.6,48.9,37.6,55.2,45.0,29.7,100,87,71,29.70,29.17,27,6,34,0.58
2013-11-18,38.3,33.1,24.1,30.2,23.6,19.1,84,68,53,30.27,29.70,28,7,28,0.00
2013-11-19,41.2,30.5,19.1,28.7,23.4,17.7,94,76,50,30.34,30.16,15,3,16,0.00
2013-11-20,39.2,36.2,34.6,35.6,30.4,26.5,97,80,61,30.16,30.03,20,4,23,0.05
2013-11-21,41.2,38.5,35.1,38.3,36.1,32.4,98,91,83,30.28,30.05,19,2,19,0.00
2013-11-22,36.4,30.7,23.9,32.9,22.7,11.9,93,73,46,30.50,30.28,19,6,19,0.01
2013-11-23,25.3,20.5,15.0,18.5,11.2,4.7,75,67,61,30.69,30.43,25,11,26,0.00
2013-11-24,28.5,25.3,19.5,11.0,8.5,5.7,64,49,38,30.65,30.22,25,11,27,0.00
2013-11-25,34.2,29.2,23.8,28.2,22.7,9.9,91,77,49,30.22,29.97,25,7,25,0.00
2013-11-26,33.9,26.1,14.4,28.1,17.0,5.2,86,68,49,30.27,29.99,26,8,26,0.00
2013-11-27,28.7,20.3,11.3,15.8,11.3,5.2,81,68,51,30.32,30.18,14,4,16,0.00
2013-11-28,32.9,26.1,20.8,19.3,16.6,14.1,81,67,54,30.50,30.11,18,3,19,0.00
2013-11-29,32.2,23.9,11.8,22.9,17.5,9.3,99,77,59,30.60,30.28,19,3,19,0.00
2013-11-30,45.7,34.7,29.2,32.2,27.6,22.6,91,76,57,30.28,29.99,15,4,15,0.00
2013-12-1,42.9,33.2,24.5,30.4,27.6,21.8,93,81,58,30.14,29.95,7,0,0,0.00
2013-12-2,41.1,31.9,21.5,34.5,27.4,-99.9,95,89,74,29.95,29.67,17,4,18,0.18
2013-12-3,39.8,37.3,35.7,38.8,36.1,34.1,96,95,94,29.72,29.62,14,3,15,0.01
2013-12-4,48.3,38.8,33.0,47.5,37.2,27.8,97,94,82,29.71,29.39,30,4,30,0.04
2013-12-5,33.0,19.0,11.6,28.1,11.7,5.6,83,73,58,30.33,29.65,33,11,33,0.00
2013-12-6,14.0,10.4,7.0,5.8,-1.6,-99.9,81,71,56,30.60,30.31,16,6,16,0.00
2013-12-7,15.1,7.2,1.4,3.9,-8.9,-99.9,92,72,43,30.74,30.60,14,4,15,0.00
2013-12-8,16.6,13.6,7.8,13.5,-3.7,-99.9,90,81,67,30.62,29.98,13,2,13,0.00
2013-12-9,15.3,7.5,-6.0,12.7,-22.9,-99.9,91,76,53,30.21,29.96,21,3,23,0.00
2013-12-10,16.2,9.5,-9.8,12.8,-13.5,-99.9,95,75,57,30.25,29.82,31,7,31,0.00
2013-12-11,15.6,7.6,-2.8,12.8,-22.5,-99.9,89,74,55,30.56,30.24,21,5,21,0.00
2013-12-12,21.2,11.8,-2.6,12.1,-11.7,-99.9,81,74,65,30.51,30.17,14,3,14,0.00
2013-12-13,25.9,19.4,13.4,17.2,13.9,9.1,89,79,66,30.22,30.12,16,3,16,0.00
2013-12-14,25.4,20.8,17.0,20.1,16.3,11.4,86,82,77,30.20,29.98,23,5,23,0.00
2013-12-15,16.8,10.7,6.4,11.4,2.8,-2.9,79,70,59,30.16,29.98,21,8,23,0.00
2013-12-16,16.7,8.9,-0.4,14.4,3.4,-6.3,91,78,52,30.16,30.02,11,1,0,0.00
2013-12-17,33.4,24.8,16.7,27.1,18.2,9.9,92,77,53,30.09,29.90,25,8,29,0.02
2013-12-18,38.6,24.0,8.9,26.6,17.0,5.5,90,75,56,30.11,29.73,26,3,28,0.02
2013-12-19,29.4,25.0,17.4,25.4,21.4,15.2,93,86,73,29.96,29.76,19,3,19,0.00
2013-12-20,25.9,23.7,22.0,22.8,21.0,19.0,93,89,87,29.90,29.81,19,3,22,0.00
2013-12-21,28.5,26.5,24.5,26.3,24.3,22.8,94,91,83,29.89,29.75,20,3,20,0.00
2013-12-22,27.6,25.5,23.3,24.1,23.1,20.4,94,90,84,30.12,29.74,15,4,18,0.00
2013-12-23,23.3,6.9,-3.6,20.5,1.4,-7.3,92,77,59,30.50,30.12,20,6,20,0.00
2013-12-24,11.9,-0.5,-16.3,7.1,-7.0,-99.9,89,80,61,30.59,30.27,17,2,17,0.00
2013-12-25,24.4,18.5,9.8,22.1,13.1,-99.9,100,88,81,30.27,30.07,19,2,20,0.00
2013-12-26,28.2,21.2,13.2,23.6,17.1,9.6,90,84,73,30.19,30.11,10,1,0,0.00
2013-12-27,38.0,25.6,9.0,31.2,21.1,6.2,93,84,68,30.23,29.99,18,2,21,0.04
2013-12-28,43.6,32.4,15.3,33.9,14.5,-99.9,95,79,58,30.02,29.70,15,2,13,0.06
2013-12-29,39.3,17.4,-4.6,33.4,11.7,-11.8,90,77,63,30.30,29.70,25,12,30,0.00
2013-12-30,2.8,-4.9,-16.9,-0.8,-11.7,-99.9,86,73,46,30.37,30.24,6,0,0,0.00
2013-12-31,7.8,1.3,-9.2,4.2,-4.5,-99.9,91,83,70,30.38,30.23,10,1,0,0.00
2014-1-1,11.0,6.2,1.6,0.5,-12.6,-99.9,71,64,54,30.42,30.25,12,3,13,0.00
2014-1-2,12.0,6.1,-10.4,3.1,-1.2,-13.0,84,71,56,30.48,30.31,14,3,14,0.00